Weather in Bugotak

Russia / Novosibirsk Oblast     55°08′48″N   83°48′18″E
temp.,
°C
wind,
m/s
gust,
m/s
humid.,
%
clouds,
%
prec.,
mm/h
press.,
hPa
HPBL,
m
8 march, mon
mon801:00−13s348448 0.0 102246
04:00−11sse498299 0.0 1019190
07:00−7s6149399 0.0 1016359
10:00−4s81587100 0.0 1012479
13:00−2s91584100 0.0 1010601
16:000ssw91681100 0.0 1006767
19:00−2sw101784100 0.0 1006925
22:00−2wsw91495100 0.8 1009872
9 march, tue
tue901:00−11w6129288 1.0 1015328
04:00−14wsw5129483 0.0 1020286
07:00−14sw6129291 0.0 1023314
10:00−13sw6128950 0.0 1025379
13:00−9sw7128451 0.0 1025614
16:00−7sw7128357 0.0 1024726
19:00−9ssw5138466 0.0 1023422
22:00−10ssw61486100 0.0 1022371
10 march, wed
wed1001:00−11ssw6158680 0.0 1021352
04:00−13ssw5128959 0.0 1020268
07:00−14ssw4119277 0.0 1020245
10:00−11ssw5109099 0.0 1019298
13:00−7ssw478798 0.0 1018364
16:00−4ssw3585100 0.0 1016409
19:00−4se3694100 0.0 1012171
22:00−1sse51392100 0.0 1008550
11 march, thu
thu1101:00+1s81879100 0.0 1001700
04:00+1ssw91798100 0.8 998772
07:00−2sw121982100 0.9 1001990
10:00−9sw10178898 0.1 1007803
13:00−7wsw9148899 0.1 1011777
16:00−5sw81388100 0.1 1012889
19:00−7sw71389100 0.1 1014931
22:00−10ssw5149197 0.1 1016470
12 march, fri
fri1201:00−10ssw6138792 0.1 1016427
04:00−6s91789100 0.4 10111032
07:00−8wsw91593100 0.8 10121057
10:00−12sw101488100 0.4 1017889
13:00−13sw101485100 0.4 10191161
16:00−14wsw91385100 0.1 10201151
19:00−16wsw71290100 0.2 1022893
22:00−17wsw71293100 0.1 1026857